EW8328 Weather Reports


time (UTC)temp
F
wind
direction
speed
knots
gust
knots
rain 1hr
in
rain 24hr
in
rain mn
in
humidity
%
barometer
mb
20260902143815 60 115 2.6 5.2 0.02 0.06 0.06 94 1012.2
20260902143315 60 103 1.7 4.3 0.02 0.06 0.06 94 1012.2
20260902142815 60 111 2.6 4.3 0.02 0.06 0.06 94 1012.3
20260902142315 60 77 2.6 6.1 0.02 0.06 0.06 93 1012.3
20260902141815 60 106 4.3 7.8 0.02 0.06 0.06 93 1012.4
20260902141315 60 108 2.6 6.1 0.02 0.06 0.06 93 1012.5
20260902140315 60 94 4.3 7.8 0.02 0.06 0.06 93 1012.6
20260902135816 60 77 3.5 7.0 0.02 0.06 0.06 93 1012.6
20260902134815 60 93 1.7 5.2 0.01 0.05 0.05 92 1012.7
20260902134315 60 105 1.7 4.3 0.02 0.05 0.05 92 1012.9
20260902133815 60 115 2.6 6.1 0.02 0.05 0.05 91 1012.9
20260902133315 60 117 4.3 7.8 0.01 0.04 0.04 90 1012.9
20260902132815 60 116 2.6 6.1 0.01 0.04 0.04 90 1013.0
20260902131815 60 123 2.6 7.0 0.01 0.04 0.04 90 1013.1
20260902131315 60 114 4.3 7.0 0.01 0.04 0.04 90 1013.1
20260902130815 60 99 2.6 7.8 0.01 0.04 0.04 90 1013.2
20260902125315 60 103 2.6 7.0 0.01 0.04 0.04 89 1013.4
20260902124315 60 105 2.6 6.1 0.00 0.03 0.03 89 1013.5
20260902123815 60 95 1.7 6.1 0.00 0.03 0.03 89 1013.5
20260902123316 60 155 2.6 6.1 0.01 0.03 0.03 88 1013.5
20260902122314 60 111 4.3 7.0 0.02 0.03 0.03 88 1013.7
20260902121815 60 112 4.3 7.8 0.02 0.03 0.03 88 1013.8
20260902120815 60 95 2.6 5.2 0.02 0.03 0.03 89 1013.8
20260902120315 60 88 2.6 6.1 0.02 0.03 0.03 89 1014.0
20260902115815 60 143 2.6 5.2 0.02 0.03 0.03 89 1014.1
20260902115315 60 202 2.6 6.1 0.02 0.03 0.03 87 1014.2
20260902114815 60 162 2.6 6.1 0.03 0.03 0.03 88 1014.3
20260902113815 60 154 2.6 7.0 0.03 0.03 0.03 87 1014.4
20260902113315 60 154 2.6 7.0 0.02 0.02 0.02 86 1014.6
20260902112816 60 158 3.5 6.1 0.02 0.02 0.02 85 1014.6
20260902111816 60 175 2.6 7.0 0.01 0.01 0.01 85 1014.9
20260902110316 60 185 2.6 7.0 0.01 0.01 0.01 86 1015.0
20260902104816 61 164 4.3 6.1 0.00 0.00 0.00 82 1015.1
20260902104315 61 182 4.3 7.8 0.00 0.00 0.00 81 1015.2
20260902103315 61 170 2.6 7.0 0.00 0.00 0.00 83 1015.2
20260902102815 61 184 2.6 6.1 0.00 0.00 0.00 83 1015.2
20260902102314 61 182 3.5 8.7 0.00 0.00 0.00 83 1015.1
20260902101815 61 178 5.2 8.7 0.00 0.00 0.00 84 1015.2
20260902101315 61 193 3.5 7.0 0.00 0.00 0.00 86 1015.2
20260902100815 61 219 4.3 7.0 0.00 0.00 0.00 85 1015.3
20260902100315 61 211 2.6 7.0 0.00 0.00 0.00 86 1015.3
20260902095815 60 190 3.5 7.0 0.00 0.00 0.00 87 1015.3
20260902094815 60 208 2.6 6.1 0.00 0.00 0.00 89 1015.4
20260902093815 60 197 2.6 6.1 0.00 0.00 0.00 89 1015.3
20260902093315 59 200 2.6 4.3 0.00 0.00 0.00 89 1015.4
20260902092815 59 194 2.6 4.3 0.00 0.00 0.00 89 1015.4
20260902092314 59 175 2.6 4.3 0.00 0.00 0.00 89 1015.4
20260902091815 59 214 4.3 7.8 0.00 0.00 0.00 89 1015.4
20260902091315 59 207 4.3 7.0 0.00 0.00 0.00 89 1015.4
20260902090315 59 186 2.6 5.2 0.00 0.00 0.00 89 1015.4
20260902085815 59 225 2.6 6.1 0.00 0.00 0.00 89 1015.4
20260902085315 59 201 2.6 6.1 0.00 0.00 0.00 89 1015.5
20260902084815 59 184 1.7 5.2 0.00 0.00 0.00 89 1015.4
20260902083815 59 217 1.7 4.3 0.00 0.00 0.00 89 1015.5
20260902083315 59 194 2.6 4.3 0.00 0.00 0.00 89 1015.4
20260902082816 59 205 1.7 4.3 0.00 0.00 0.00 89 1015.4
20260902082314 58 196 2.6 5.2 0.00 0.00 0.00 89 1015.4
20260902081815 58 187 1.7 5.2 0.00 0.00 0.00 89 1015.5
20260902080815 58 267 2.6 5.2 0.00 0.00 0.00 89 1015.5
20260902080315 58 244 1.7 2.6 0.00 0.00 0.00 88 1015.5
20260902075814 58 237 4.3 7.8 0.00 0.00 0.00 88 1015.5
20260902074815 58 288 1.7 4.3 0.00 0.00 0.00 89 1015.5
20260902074314 58 215 1.7 2.6 0.00 0.00 0.00 89 1015.4
20260902073814 58 196 1.7 5.2 0.00 0.00 0.00 89 1015.5
20260902073315 58 220 0.9 2.6 0.00 0.00 0.00 89 1015.4
20260902072815 58 226 2.6 4.3 0.00 0.00 0.00 89 1015.3
20260902072316 58 270 2.6 4.3 0.00 0.00 0.00 89 1015.3
20260902071315 58 162 1.7 5.2 0.00 0.00 0.00 89 1015.3
20260902070815 58 154 1.7 4.3 0.00 0.00 0.00 89 1015.3
20260902070315 57 210 1.7 4.3 0.00 0.00 0.00 89 1015.3
20260902065314 57 181 1.7 4.3 0.00 0.00 0.00 89 1015.2
20260902064815 57 176 0.9 2.6 0.00 0.00 0.00 89 1015.2
20260902063814 57 209 2.6 5.2 0.00 0.00 0.00 89 1015.2
20260902063314 57 217 1.7 4.3 0.00 0.00 0.00 89 1015.1
20260902062815 57 217 2.6 5.2 0.00 0.00 0.00 90 1015.2
20260902062314 57 194 2.6 5.2 0.00 0.00 0.00 90 1015.2
20260902061814 57 194 2.6 6.1 0.00 0.00 0.00 90 1015.2
20260902061315 57 197 0.9 2.6 0.00 0.00 0.00 90 1015.3
20260902060815 57 229 2.6 5.2 0.00 0.00 0.00 90 1015.2
20260902055815 57 183 3.5 6.1 0.00 0.00 0.00 90 1015.0
20260902055315 57 184 1.7 4.3 0.00 0.00 0.00 90 1015.0
20260902054815 57 181 0.9 2.6 0.00 0.00 0.00 90 1014.9
20260902054314 57 135 0.9 1.7 0.00 0.00 0.00 90 1014.9
20260902053815 57 135 0.0 1.7 0.00 0.00 0.00 90 1014.9
20260902053315 57 135 0.0 1.7 0.00 0.00 0.00 90 1015.0
20260902052815 57 135 0.0 0.9 0.00 0.00 0.00 90 1015.0
20260902052314 57 135 0.9 1.7 0.00 0.00 0.00 89 1015.0
20260902051815 57 135 0.0 1.7 0.00 0.00 0.00 89 1014.9
20260902051314 57 135 0.9 2.6 0.00 0.00 0.00 89 1014.9
20260902050815 57 135 0.9 1.7 0.00 0.00 0.00 89 1015.0
20260902050316 57 135 0.9 1.7 0.00 0.00 0.00 89 1014.9
20260902045814 58 159 0.9 1.7 0.00 0.00 0.00 89 1014.9
20260902045315 58 271 0.9 1.7 0.00 0.00 0.00 89 1014.9
20260902044814 58 271 0.9 0.9 0.00 0.00 0.00 89 1014.9
20260902043315 58 271 0.0 0.9 0.00 0.00 0.00 89 1015.0
20260902042815 58 271 0.0 0.9 0.00 0.00 0.00 89 1015.0
20260902042314 58 271 0.0 1.7 0.00 0.00 0.00 89 1015.0
20260902041815 58 271 0.0 1.7 0.00 0.00 0.00 88 1015.0
20260902041314 58 271 0.9 2.6 0.00 0.00 0.00 88 1015.0
20260902040814 58 204 0.9 2.6 0.00 0.00 0.00 88 1015.0
20260902035815 58 220 0.0 1.7 0.00 0.00 0.00 88 1015.0
20260902035314 58 220 0.9 1.7 0.00 0.00 0.00 88 1015.0
20260902034815 58 220 0.9 1.7 0.00 0.00 0.00 88 1015.0
20260902034315 58 220 0.9 2.6 0.00 0.00 0.00 88 1014.9
20260902033814 58 200 0.9 1.7 0.00 0.00 0.00 88 1015.0
20260902032815 58 200 0.0 0.9 0.00 0.00 0.00 89 1015.0
20260902032314 58 200 1.7 2.6 0.00 0.00 0.00 89 1015.0
20260902031815 57 212 1.7 2.6 0.00 0.00 0.00 89 1015.0
20260902031314 57 211 0.9 1.7 0.00 0.00 0.00 89 1015.0
20260902030815 57 211 0.9 2.6 0.00 0.00 0.00 89 1015.0
20260902030314 57 236 0.9 1.7 0.00 0.00 0.00 88 1015.0
20260902025814 57 236 0.0 0.9 0.00 0.00 0.00 88 1015.1
20260902025315 57 236 0.0 1.7 0.00 0.00 0.00 88 1015.1
20260902024815 57 236 0.0 1.7 0.00 0.00 0.00 88 1015.3
20260902024315 57 236 0.9 0.9 0.00 0.00 0.00 87 1015.4
20260902023814 57 236 1.7 2.6 0.00 0.00 0.00 87 1015.4
20260902023315 57 236 0.9 2.6 0.00 0.00 0.00 87 1015.4
20260902022814 57 271 0.9 2.6 0.00 0.00 0.00 87 1015.4
20260902022314 57 245 0.9 2.6 0.00 0.00 0.00 87 1015.5
20260902021814 58 245 1.7 2.6 0.00 0.00 0.00 86 1015.5
20260902021314 58 263 0.9 2.6 0.00 0.00 0.00 86 1015.5
20260902020815 58 257 1.7 5.2 0.00 0.00 0.00 85 1015.6
20260902020314 58 212 2.6 6.1 0.00 0.00 0.00 85 1015.7
20260902015815 58 220 3.5 5.2 0.00 0.00 0.00 85 1015.7
20260902015314 58 197 1.7 2.6 0.00 0.00 0.00 85 1015.6
20260902014315 58 207 1.7 2.6 0.00 0.00 0.00 85 1015.6
20260902013814 59 206 1.7 2.6 0.00 0.00 0.00 85 1015.6
20260902013314 59 206 0.0 1.7 0.00 0.00 0.00 85 1015.7
20260902012814 58 206 0.0 1.7 0.00 0.00 0.00 85 1015.7
20260902012314 58 206 0.9 2.6 0.00 0.00 0.00 85 1015.6
20260902011815 58 153 2.6 7.0 0.00 0.00 0.00 85 1015.7
20260902011316 58 21 0.0 1.7 0.00 0.00 0.00 85 1015.7
20260902010815 58 27 1.7 2.6 0.00 0.00 0.00 84 1015.7
20260902010314 58 106 0.9 1.7 0.00 0.00 0.00 84 1015.7
20260902005816 59 213 1.7 5.2 0.00 0.00 0.00 84 1015.6
20260902004815 59 225 0.0 1.7 0.00 0.00 0.00 83 1015.6
20260902004315 59 225 0.9 1.7 0.00 0.00 0.00 83 1015.8
20260902003814 59 225 0.0 1.7 0.00 0.00 0.00 83 1015.7
20260902003314 59 225 2.6 4.3 0.00 0.00 0.00 83 1015.8
20260902002815 59 240 1.7 4.3 0.00 0.00 0.00 83 1015.8
20260902001814 59 221 2.6 19.1 0.00 0.00 0.00 83 1015.8
20260902000815 59 215 2.6 5.2 0.00 0.00 0.00 83 1015.9
20260902000314 59 263 1.7 4.3 0.00 0.00 0.00 83 1015.9
20260901235814 59 230 2.6 6.1 0.00 0.00 0.00 82 1015.9
20260901235314 59 249 4.3 5.2 0.00 0.00 0.00 82 1015.9
20260901234814 59 251 4.3 6.1 0.00 0.00 0.00 82 1016.0
20260901234314 59 237 2.6 7.0 0.00 0.00 0.00 82 1015.9
20260901233815 59 222 4.3 7.8 0.00 0.00 0.00 82 1015.8
20260901233313 59 231 2.6 7.0 0.00 0.00 0.00 82 1015.8
20260901232814 59 219 5.2 7.0 0.00 0.00 0.00 82 1015.8
20260901232314 59 260 3.5 10.4 0.00 0.00 0.00 82 1015.8
20260901231815 59 229 3.5 6.1 0.00 0.00 0.00 82 1015.9
20260901231314 60 248 2.6 5.2 0.00 0.00 0.00 82 1015.9
20260901230855 60 243 2.6 6.1 0.00 0.00 0.00 81 1016.0
20260901230314 60 241 3.5 6.1 0.00 0.00 0.00 81 1016.0
20260901225814 60 222 2.6 6.1 0.00 0.00 0.00 81 1016.0
20260901225314 60 250 3.5 7.8 0.00 0.00 0.00 81 1016.1
20260901224815 60 234 2.6 6.1 0.00 0.00 0.00 81 1016.1
20260901224314 60 226 2.6 6.1 0.00 0.00 0.00 81 1016.1
20260901222814 60 216 3.5 6.1 0.00 0.00 0.00 80 1016.2
20260901222314 60 259 2.6 4.3 0.00 0.00 0.00 80 1016.2
20260901221814 60 261 1.7 2.6 0.00 0.00 0.00 80 1016.2
20260901221314 60 258 2.6 5.2 0.00 0.00 0.00 80 1016.2
20260901220814 60 280 1.7 6.1 0.00 0.00 0.00 79 1016.2
20260901215314 60 247 1.7 2.6 0.00 0.00 0.00 80 1016.2
20260901214314 61 216 2.6 5.2 0.00 0.00 0.00 80 1016.2
20260901213814 61 219 3.5 6.1 0.00 0.00 0.00 81 1016.2
20260901213314 61 232 1.7 6.1 0.00 0.00 0.00 81 1016.2
20260901212816 61 204 1.7 5.2 0.00 0.00 0.00 82 1016.2
20260901212314 61 207 2.6 6.1 0.00 0.00 0.00 82 1016.2
20260901211814 61 185 2.6 4.3 0.00 0.00 0.00 82 1016.2
20260901211314 61 168 0.9 2.6 0.00 0.00 0.00 83 1016.3
20260901210315 61 259 1.7 2.6 0.00 0.00 0.00 82 1016.3
20260901205815 61 269 0.9 2.6 0.00 0.00 0.00 82 1016.4
20260901205314 61 249 1.7 7.0 0.00 0.00 0.00 82 1016.3
20260901204814 61 247 2.6 6.1 0.00 0.00 0.00 83 1016.3
20260901204315 61 246 1.7 5.2 0.00 0.00 0.00 83 1016.3
20260901203813 61 213 2.6 5.2 0.00 0.00 0.00 83 1016.3
20260901203314 61 214 2.6 5.2 0.00 0.00 0.00 83 1016.3
20260901202815 61 214 1.7 4.3 0.00 0.00 0.00 83 1016.3
20260901202314 61 233 1.7 4.3 0.00 0.00 0.00 83 1016.2
20260901201815 61 240 1.7 6.1 0.00 0.00 0.00 83 1016.2
20260901201314 61 252 4.3 8.7 0.00 0.00 0.00 83 1016.2
20260901200815 61 251 4.3 6.1 0.00 0.00 0.00 83 1016.2
20260901200314 61 249 2.6 5.2 0.00 0.00 0.00 83 1016.2
20260901195814 62 232 4.3 7.8 0.00 0.00 0.00 82 1016.1
20260901195314 62 248 3.5 6.1 0.00 0.00 0.00 82 1016.0
20260901194814 62 218 2.6 7.0 0.00 0.00 0.00 82 1016.1
20260901194314 62 236 2.6 6.1 0.00 0.00 0.00 82 1016.1
20260901193814 62 253 4.3 7.0 0.00 0.00 0.00 82 1016.0
20260901193314 62 230 1.7 5.2 0.00 0.00 0.00 82 1016.0
20260901192314 62 241 4.3 7.0 0.00 0.00 0.00 82 1016.0
20260901191814 62 241 4.3 7.0 0.00 0.00 0.00 81 1015.9
20260901191314 62 249 3.5 6.1 0.00 0.00 0.00 81 1015.9
20260901190814 62 244 3.5 6.1 0.00 0.00 0.00 80 1015.9
20260901190314 62 244 4.3 7.0 0.00 0.00 0.00 80 1015.9
20260901185814 62 251 4.3 10.4 0.00 0.00 0.00 80 1015.9
20260901184814 62 239 4.3 7.8 0.00 0.00 0.00 79 1015.9
20260901184314 63 243 3.5 10.4 0.00 0.00 0.00 79 1015.9
20260901183814 63 245 5.2 7.8 0.00 0.00 0.00 78 1015.9
20260901181814 63 251 3.5 7.8 0.00 0.00 0.00 78 1016.0
20260901181314 63 253 3.5 7.0 0.00 0.00 0.00 78 1016.0
20260901180814 63 256 4.3 10.4 0.00 0.00 0.00 77 1016.0
20260901175814 63 247 5.2 8.7 0.00 0.00 0.00 77 1016.0
20260901174814 64 245 4.3 7.8 0.00 0.00 0.00 76 1015.9
20260901174314 64 254 3.5 6.1 0.00 0.00 0.00 75 1015.8
20260901173814 64 254 5.2 10.4 0.00 0.00 0.00 74 1015.8
20260901173314 64 251 4.3 10.4 0.00 0.00 0.00 74 1015.9
20260901172814 64 239 4.3 11.3 0.00 0.00 0.00 74 1015.9
20260901172314 64 253 4.3 7.8 0.00 0.00 0.00 73 1015.8
20260901171814 64 250 5.2 12.2 0.00 0.00 0.00 73 1015.9
20260901170814 63 251 5.2 10.4 0.00 0.00 0.00 73 1015.9
20260901170313 63 242 4.3 8.7 0.00 0.00 0.00 73 1015.9
20260901165814 63 242 6.1 10.4 0.00 0.00 0.00 73 1015.8
20260901165313 64 245 7.8 13.0 0.00 0.00 0.00 73 1015.8
20260901164814 64 261 5.2 11.3 0.00 0.00 0.00 73 1016.0
20260901163314 64 248 6.1 10.4 0.00 0.00 0.00 72 1015.8
20260901162814 64 245 7.0 12.2 0.00 0.00 0.00 72 1015.8
20260901162314 64 248 7.0 15.6 0.00 0.00 0.00 71 1015.9
20260901161814 64 252 7.0 10.4 0.00 0.00 0.00 71 1016.2
20260901161314 64 241 9.6 18.2 0.00 0.00 0.00 72 1016.0
20260901160814 64 242 7.8 15.6 0.00 0.00 0.00 71 1016.2
20260901160314 65 242 7.0 13.0 0.00 0.00 0.00 71 1016.1
20260901155815 65 242 7.0 11.3 0.00 0.00 0.00 71 1015.9
20260901155313 65 246 6.1 13.9 0.00 0.00 0.00 70 1015.8
20260901154814 65 247 7.0 13.0 0.00 0.00 0.00 69 1015.9
20260901154314 65 248 6.1 13.9 0.00 0.00 0.00 68 1016.0
20260901153814 65 252 6.1 12.2 0.00 0.00 0.00 70 1016.0
20260901153314 64 252 6.1 12.2 0.00 0.00 0.00 71 1016.1
20260901152814 64 253 7.0 13.0 0.00 0.00 0.00 70 1016.1
20260901151813 65 239 5.2 11.3 0.00 0.00 0.00 69 1016.1
20260901150814 64 238 7.8 14.8 0.00 0.00 0.00 70 1015.9
20260901150314 64 233 7.0 12.2 0.00 0.00 0.00 71 1015.9
20260901145813 64 247 4.3 10.4 0.00 0.00 0.00 72 1015.9
20260901144813 64 254 4.3 10.4 0.00 0.00 0.00 70 1016.0